Location: Alvis C Story Elementary School
(33.0968°N, 96.6364°W)
Time: 18:36:53
(UTC+00:00)

Cosmos 1602 - Pass Details

Date: 03 July 2022
Orbit: 508 x 526 km, 82.5° (Epoch: 17 August)

Event Time Altitude Azimuth Distance (km) Brightness Sun altitude
Exits shadow 10:13:57 12° 275° (W) 1,598 5.8 -12.8°
Maximum altitude 10:14:32 12° 285° (WNW) 1,579 5.8 -12.7°
Drops below altitude 10° 10:16:10 10° 311° (NW) 1,728 6.2 -12.4°
Sets 10:19:27 0° 342° (NNW) 2,620 7.5 -11.9°
